Regional Weather Roundup
Issued by NWS Wakefield, VA

Home | Current Version | Previous Version | Text Only | Print | Product List | Glossary Off
Versions: 1 2 3 4 5 6 7 8 9 10 11 12 13 14 15 16 17 18 19 20 21 22 23 24 25 26 27 28 29 30 31 32 33 34 35 36 37 38 39 40 41 42 43 44 45 46 47 48 49 50

000
ASUS41 KAKQ 270414
RWRAKQ

REGIONAL WEATHER ROUNDUP
NATIONAL WEATHER SERVICE WAKEFIELD VA
1200 AM EDT FRI MAR 27 2015

Note: "fair" indicates few or no clouds below 12,000 feet with no
significant weather and/or obstructions to visibility. * = Denotes
station may not report precipitation (e.g., rain,snow,etc.),
thunder or fog.

VAZ042-051-052>054-056-270500-
NORTHERN VIRGINIA

CITY           SKY/WX    TMP DP  RH WIND       PRES   REMARKS
WASH NATIONAL  CLOUDY    54  45  71 NW14      29.74R
DULLES         CLOUDY    50  41  71 NW15G24   29.76R
FORT BELVOIR   LGT RAIN  52  43  71 NW15G24   29.76R
QUANTICO       HVY RAIN  52  44  74 N17G26    29.77R
FREDERICKSBRG* RAIN      54  52  95 N15G23    29.73R
STAFFORD*      RAIN      51  32  48 N13       29.79R
WARRENTON      LGT RAIN  52  48  84 NW14G24   29.75R
CULPEPER*      RAIN      52  45  76 N20G28    29.75R
MANASSAS*      CLOUDY    52  45  76 N12G21    29.76R
LEESBURG*      DRIZZLE   50  45  81 N12G17    29.78R
WINCHESTER     LGT RAIN  46  36  66 NW15      29.79R
FRONT ROYAL*   CLOUDY    46  41  81 NW5       29.78F
LURAY*         CLOUDY    52  43  71 N12       29.78R
$$

VAZ048-049-060>072-079>083-270500-
CENTRAL AND SOUTH CENTRAL VIRGINIA

CITY           SKY/WX    TMP DP  RH WIND       PRES   REMARKS
RICHMOND       CLOUDY    66  54  65 S9        29.67S
CHESTERFIELD*  MOCLDY    66  48  52 S6        29.69S
PETERSBURG*    CLOUDY    65  55  69 CALM      29.69S
HANOVER        CLOUDY    68  54  60 W6        29.69R
TAPPAHANNOCK*  CLOUDY    66  53  61 NW5       29.69R
QUINTON*       FAIR      64  57  77 SE6       29.68S
CHARLOTTSVILLE LGT RAIN  56  54  93 VRB3      29.71R
GORDONSVILLE*  CLOUDY    53  50  92 NE10G22   29.71R
ORANGE*        RAIN      52  48  87 N10       29.74R
LOUISA*        LGT RAIN  55  54  94 NE14G22   29.71R
BUMPASS*       CLOUDY    58  54  85 N8        29.71R
FARMVILLE*     CLOUDY    66  55  68 NW3       29.66S
CREWE*         FAIR      65  54  67 MISG      29.67S
FORT PICKETT*  FAIR      64  55  71 S8G22     29.68F
CHASE CITY*    FAIR      67  58  74 S5        29.69S
CLARKSVILLE*   FAIR      64  55  72 S6        29.68F
SOUTH HILL*    CLOUDY    63  55  76 S7        29.75S
LAWRENCEVILLE* FAIR      63  56  80 S3        29.69F
EMPORIA*       CLOUDY    63  57  82 SE5       29.72S
$$

VAZ088>098-270500-
SOUTHEAST VIRGINIA

CITY           SKY/WX    TMP DP  RH WIND       PRES   REMARKS
NORFOLK        CLOUDY    65  56  72 SW17      29.71S
VIRGINIA BEACH CLOUDY    68  57  68 S14       29.72S
NORFOLK NAVAL  CLOUDY    69  57  65 S10       29.72F
WEST POINT*    CLOUDY    67  56  68 S6        29.69F
SALUDA*        FAIR      65  57  76 SW10G18   29.67S
NEWPORT NEWS   CLOUDY    68  57  68 SW14      29.70
LANGLEY AFB    CLOUDY    66  57  74 SW15      29.69F
FORT EUSTIS    CLOUDY    63  56  77 SW10      29.68S
WILLIAMSBURG*  CLOUDY    66  59  77 S7        29.71S
HR EXEC AP*    FAIR      66  57  72 S10       29.73F
FRANKLIN*      CLOUDY    64  57  77 S10G16    29.72F
WAKEFIELD      CLOUDY    65  57  75 S8        29.70F
$$

VAZ020-022-025-037-045-270500-
WEST CENTRAL AND SOUTHWEST VIRGINIA

CITY           SKY/WX    TMP DP  RH WIND       PRES   REMARKS
STAUNTON*      CLOUDY    51  43  74 N17       29.76R
WAYNESBORO*    CLOUDY    53  50  91 N14G20    29.73R
HOT SPRINGS VA CLOUDY    41  41 100 NW13G21   29.74R FOG
LYNCHBURG      CLOUDY    57  53  86 N5        29.71R
DANVILLE       CLOUDY    64  55  72 SW5       29.68S
SOUTH BOSTON*  FAIR      65  54  65 MISG      29.68S
MARTINSVILLE   CLOUDY    63  51  66 NW6G17    29.73R
ROANOKE        CLOUDY    55  50  83 W7        29.76R
BLACKSBURG     CLOUDY    47  42  82 W3        29.80R
DUBLIN*        CLOUDY    48  44  86 NW9       29.79S
MARION*        CLOUDY    47  41  81 W12       29.83R
HILLSVILLE*    LGT RAIN  49  47  93 NW13      29.76S
RICHLANDS*     RAIN      40  38  91 N9        29.85R
WISE*          LGT SNOW  37  37 100 N8        29.89R
ABINGDON*      LGT RAIN  45  42  89 NW12G18   29.85R
$$

MDZ021>025-VAZ099-100-270500-
SOUTHERN MARYLAND AND THE DELMARVA PENINSULA

CITY           SKY/WX    TMP DP  RH WIND       PRES   REMARKS
PATUXENT RIVER CLOUDY    57  53  86 NW16      29.70S
BAY BRIDGE APT LGT RAIN  46  46 100 NW7       29.74R
LEONARDTOWN    CLOUDY    54  52  94 NW9       29.73R
DOVER          LGT RAIN  55  55 100 NW13G18   29.66R
GEORGETOWN     CLOUDY    61  58  90 NW6       29.67S
EASTON         RAIN      56  56  99 N12       29.76R
CAMBRIDGE      CLOUDY    59  54  82 NW9       29.70R
SALISBURY      CLOUDY    61  58  90 W9        29.68R
OCEAN CITY     CLOUDY    54  52  93 SW14      29.67S
WALLOPS ISLAND CLOUDY    51  50  96 S10       29.69S FOG
ACCOMACK*      CLOUDY    59  54  82 S9        29.69S
$$

NCZ012>017-030>032-270500-
NORTH CENTRAL AND EASTERN NORTH CAROLINA

CITY           SKY/WX    TMP DP  RH WIND       PRES   REMARKS
ROANOKE RAPIDS FAIR      64  57  77 S10       29.71F
RALEIGH        CLOUDY    68  56  65 SW12      29.72S
ELIZABETH CITY CLOUDY    64  56  75 S14       29.75S
AHOSKIE*       CLOUDY    64  57  78 S8        29.73F
EDENTON*       CLOUDY    64  56  77 SW12      29.76S
CURRITUCK*     CLOUDY    65  55  68 S6        29.75F
KILL DEVIL HLS CLOUDY    64  59  81 SW10G18   29.75F
MANTEO         CLOUDY    63  57  82 SW14      29.77S
CAPE HATTERAS  CLOUDY    65  60  84 SW10      29.79F
TARBORO*       FAIR      67  58  72 S7        29.75S
GOLDSBORO      CLOUDY    66  65  98 S9        29.73F
WASHINGTON     MOCLDY    65  55  70 S6        29.76F
GREENVILLE     CLOUDY    66  57  72 S12       29.78S
NEW BERN       PTCLDY    64  57  78 S9        29.79F
WILMINGTON     MOCLDY    64  62  93 S12       29.79F
$$

VAZ048-270500-
ELSEWHERE

CITY           SKY/WX    TMP DP  RH WIND       PRES   REMARKS
HARRISBURG PA  CLOUDY    46  38  73 NW12      29.76R
BALTIMORE      CLOUDY    50  43  77 NW8       29.74R
ANNAPOLIS      LGT RAIN  51  47  86 N13       29.73R
ANDREWS AFB    LGT RAIN  54  48  82 N16       29.72R
PHILADELPHIA   RAIN      51  46  83 N16       29.70S FOG
HENDERSON NC   CLOUDY    64  53  67 S8        29.70F
GREENSBORO     CLOUDY    64  54  69 SW10      29.69S
ROCKY MOUNT    CLOUDY    66  59  78 S8        29.73S
$$

VAZ100-270500-
MARINE

STATION/POSITION TIME  TEMP    WIND        PRES    WAVE   SWELL
                       AIR SEA DIR/SP/G            HT/PER HT/PER
                 (UTC) (F)     (DEG/KT/KT) (MB)    (FT/S) (FT/S)
BRANDYWINE LGT   0300   52 40  340/ 16/ 18 1004.8R
CAPE MAY NJ      0300   48 43  280/  7/  8 1004.4R
LEWES DE         0300   61 40  270/ 10/ 16 1003.9R
15NM E FENWICK I 0350   43 40              1004.4F   8/ 9
OCEAN-CITY-INLET 0300   46 45  210/ 12/ 14 1004.5F
WACHAPREAGUE VA  0300   53 52  220/  8/ 12 1005.4R
THOMAS POINT MD  0400                        N/A
COVE POINT MD    0300   57      30/ 13/ 16 1004.9R
SOLOMONS ISLAND  0300      44                N/A
BISHOPS HEAD MD  0306          210/  8/ 10   N/A
PINEY POINT MD   0300          160/  2/  3   N/A
CAMBRIDGE MD     0300   59 43  330/  7/  9 1005.1R
LEWISETTA VA     0300   65 50              1003.9F
RAPPAHANNOCK LGT 0300          180/ 15/ 16 1005.6R
STINGRAY PT      0400   57 45  220/ 10/ 12   N/A     1/ 2
YORK RVR RNG VA  0300   59     210/ 20/ 21 1004.6R
YORKTOWN VA      0300   65 48  190/  9/ 12 1005.2R
DOMINION TERM VA 0300   62     210/ 16/ 18 1006.0R
KIPTOPEKE VA     0300      50  190/  6/  9   N/A
CHES BAY BRIDGE  0300   65 47  180/ 15/ 17 1005.5S
CAPE HENRY VA    0300   67     190/ 12/ 18 1005.0S
CHESAPEAKE LGHT  0300   54     200/ 30/ 30 1006.3S
WILLOUBY STN VA  0300   66     200/ 19/ 20 1006.4S
S CRANEY ISL VA  0300          190/ 11/ 16 1006.3R
CAPE HENRY BUOY  0328      44                N/A     5/ 8   2/11
1ST LANDING BUOY 0400   60     210/ 14/ 19 1005.7F   3/ 4
OFFSHORE WE BUOY 0311      41                N/A     7/ 8   3/13
64NM E OF VA BCH 0350   57 51  210/ 19/ 21 1006.9F   9/ 8   7/ 8
DUCK PIER NC     0300   63 40  190/ 15/ 20 1006.8F
44056 DUCK FRF   0311      42                N/A     5/ 8   2/11
OREGON INLET NC  0300   61 59  190/ 19/ 21 1008.6F
HATTERAS NC      0300   65 60  210/  8/ 12 1010.0F
CAPE LOOKOUT NC  0400   63     190/ 11/ 13 1008.9F
$$


USA.gov is the U.S. government's official web portal to all federal, state and local government web resources and services.